Regional Weather Roundup
Issued by NWS

Home | Current Version | Previous Version | Text Only | Print | Product List | Glossary Off
Versions: 1 2 3 4 5 6 7 8 9 10 11 12 13 14 15 16 17 18 19 20 21 22 23 24 25 26 27 28 29 30 31 32 33 34 35 36 37 38 39 40 41 42 43 44 45 46 47 48 49 50

000
ASUS43 KLMK 300202
RWRKY
KENTUCKY REGIONAL WEATHER ROUNDUP
NATIONAL WEATHER SERVICE LOUISVILLE KY
1000 PM EDT TUE JUL 29 2014

NOTE "FAIR" INDICATES FEW OR NO CLOUDS BELOW 12,000 FEET
WITH NO SIGNIFICANT WEATHER AND/OR OBSTRUCTIONS TO VISIBILITY.

KYZ001>023-026-027-061>063-070>075-300300-
WESTERN AND SOUTH CENTRAL KENTUCKY

CITY           SKY/WX    TMP DP  RH WIND       PRES   REMARKS
PADUCAH        CLEAR     64  58  80 SW3       30.07S
HENDERSON      CLEAR     64  57  77 CALM      30.06R
OWENSBORO      CLEAR     67  58  72 CALM      30.08R
HOPKINSVILLE   CLEAR     70  52  52 NW5       30.07S
BOWLING GREEN  CLEAR     70  54  56 CALM      30.08R
GLASGOW        MOCLDY    65  58  77 CALM      30.09R
$$

KYZ024-025-028>034-038-045-046-053-300300-
NORTH CENTRAL KENTUCKY

CITY           SKY/WX    TMP DP  RH WIND       PRES   REMARKS
LOUISVILLE/SDF PTCLDY    70  57  63 W5        30.06R
LOUISVILLE/LOU CLEAR     71  56  58 CALM      30.07R
FORT KNOX      NOT AVBL
$$

KYZ035>037-039>044-047>052-055>060-089>105-300300-
NORTHEAST KENTUCKY

CITY           SKY/WX    TMP DP  RH WIND       PRES   REMARKS
LEXINGTON      CLEAR     65  55  70 CALM      30.09R
COVINGTON      MOCLDY    63  57  81 SW3       30.06S
FRANKFORT      CLEAR     63  57  81 CALM      30.07R
$$

KYZ054-064>069-076>088-106>120-300300-
SOUTHEAST KENTUCKY

CITY           SKY/WX    TMP DP  RH WIND       PRES   REMARKS
JACKSON        CLEAR     62  53  72 CALM      30.10R
LONDON         CLEAR     62  54  74 CALM      30.10R
SOMERSET       CLEAR     61  54  77 CALM      30.10R
MIDDLESBORO    CLEAR     61  56  82 CALM      30.11R
MONTICELLO     CLEAR     58  56  93 CALM      30.11R
$$



USA.gov is the U.S. government's official web portal to all federal, state and local government web resources and services.